Milledgeville, GA

1:44 AM EST on November 13, 2019 (GMT -0500)
Baldwin County

Weather History for KMLJ - September, 2019

Change the Weather History Date:

Thursday, September 5, 2019

  Actual Average (KOKZ) Record (KOKZ)
Temperature  
Mean Temperature 84 °F -  
Max Temperature 96 °F 85 °F 95 °F (2019)
Min Temperature 73 °F 65 °F 61 °F (2016)
Cooling Degree Days 20    
Growing Degree Days 34 (Base 50)    
Moisture  
Dew Point 67 °F    
Average Humidity 57    
Maximum Humidity 83    
Minimum Humidity 32    
Precipitation  
Precipitation 0.00 in - - ()
Sea Level Pressure  
Sea Level Pressure 29.85 in    
Wind  
Wind Speed 5 mph (NNW)    
Max Wind Speed 10 mph    
Max Gust Speed 18 mph    
Visibility 10 miles    
Events      
Averages and records for this station are not official NWS values.
T = Trace of Precipitation, MM = Missing Value Source: NWS Daily Summary

Daily Weather History Graph

Daily Weather History Graph

Search for Another Location

Airport or City:

Astronomy

Sep. 05, 2019 Rise Set
Actual Time 7:09 AM EDT 7:53 PM EDT
Civil Twilight 6:44 AM EDT 8:18 PM EDT
Nautical Twilight 6:15 AM EDT 8:47 PM EDT
Astronomical Twilight 5:44 AM EDT 9:17 PM EDT
Moon 1:54 PM EDT (9/5) No Moon Set
Length of Visible Light 13h 33m
Length of Day
12h 43m
Waxing Crescent, 45% of the Moon is Illuminated
Sep 5
Waxing Crescent
Sep 5
First Quarter
Sep 14
Full
Sep 21
Last Quarter
Sep 28
New

Hourly Weather History & Observations

Time (EDT) Temp. Heat Index Dew Point Humidity Pressure Visibility Wind Dir Wind Speed Gust Speed Precip Events Conditions
12:15 AM 80.6 °F 83.2 °F 68.0 °F 65% 29.87 in 10.0 mi North 3.5 mph - N/A   Clear
12:35 AM 80.6 °F 83.2 °F 68.0 °F 65% 29.88 in 10.0 mi North 3.5 mph - N/A   Clear
12:55 AM 80.6 °F 83.2 °F 68.0 °F 65% 29.88 in 10.0 mi NNE 3.5 mph - N/A   Clear
1:15 AM 80.6 °F 83.2 °F 68.0 °F 65% 29.88 in 10.0 mi North 4.6 mph - N/A   Clear
1:35 AM 80.6 °F 83.2 °F 68.0 °F 65% 29.87 in 10.0 mi North 3.5 mph - N/A   Clear
1:55 AM 80.6 °F 83.2 °F 68.0 °F 65% 29.87 in 10.0 mi North 3.5 mph - N/A   Clear
2:15 AM 80.6 °F 83.9 °F 69.8 °F 70% 29.86 in 10.0 mi North 3.5 mph - N/A   Clear
2:35 AM 78.8 °F - 69.8 °F 74% 29.86 in 10.0 mi North 4.6 mph - N/A   Clear
2:55 AM 78.8 °F - 69.8 °F 74% 29.86 in 10.0 mi North 3.5 mph - N/A   Clear
3:15 AM 78.8 °F - 69.8 °F 74% 29.85 in 10.0 mi NNE 5.8 mph - N/A   Clear
3:35 AM 78.8 °F - 69.8 °F 74% 29.85 in 10.0 mi North 4.6 mph - N/A   Clear
3:55 AM 78.8 °F - 69.8 °F 74% 29.85 in 10.0 mi Calm Calm - N/A   Clear
4:15 AM 78.8 °F - 69.8 °F 74% 29.85 in 10.0 mi North 3.5 mph - N/A   Clear
4:35 AM 78.8 °F - 69.8 °F 74% 29.84 in 10.0 mi NNW 4.6 mph - N/A   Clear
4:55 AM 78.8 °F - 69.8 °F 74% 29.84 in 7.0 mi NNW 5.8 mph - N/A   Clear
5:15 AM 78.8 °F - 68.0 °F 69% 29.84 in 7.0 mi NNW 5.8 mph - N/A   Clear
5:35 AM 75.2 °F - 69.8 °F 83% 29.85 in 5.0 mi NW 5.8 mph - N/A   Haze
5:55 AM 77.0 °F - 69.8 °F 78% 29.85 in 5.0 mi NNW 5.8 mph - N/A   Haze
6:15 AM 77.0 °F - 68.0 °F 74% 29.86 in 7.0 mi NNW 3.5 mph - N/A   Clear
6:35 AM 77.0 °F - 68.0 °F 74% 29.86 in 5.0 mi NNW 6.9 mph - N/A   Haze
6:55 AM 77.0 °F - 68.0 °F 74% 29.87 in 7.0 mi NNW 5.8 mph - N/A   Clear
7:15 AM 75.2 °F - 68.0 °F 78% 29.88 in 10.0 mi NW 4.6 mph - N/A   Clear
7:35 AM 73.4 °F - 68.0 °F 83% 29.89 in 10.0 mi NW 4.6 mph - N/A   Clear
7:55 AM 75.2 °F - 69.8 °F 83% 29.89 in 10.0 mi NW 5.8 mph - N/A   Clear
8:15 AM 77.0 °F - 69.8 °F 78% 29.89 in 10.0 mi NNW 5.8 mph - N/A   Clear
8:35 AM 77.0 °F - 69.8 °F 78% 29.89 in 10.0 mi NNW 4.6 mph - N/A   Clear
8:55 AM 77.0 °F - 69.8 °F 78% 29.89 in 10.0 mi NW 5.8 mph - N/A   Clear
9:15 AM 77.0 °F - 69.8 °F 78% 29.89 in 10.0 mi NW 5.8 mph - N/A   Clear
9:35 AM 78.8 °F - 69.8 °F 74% 29.89 in 10.0 mi NNW 5.8 mph - N/A   Clear
9:55 AM 80.6 °F 83.9 °F 69.8 °F 70% 29.89 in 10.0 mi NNW 8.1 mph - N/A   Clear
10:15 AM 82.4 °F 86.3 °F 69.8 °F 66% 29.89 in 10.0 mi North 4.6 mph - N/A   Clear
10:35 AM 86.0 °F 90.4 °F 69.8 °F 58% 29.88 in 10.0 mi North 8.1 mph - N/A   Clear
10:55 AM 86.0 °F 89.4 °F 68.0 °F 55% 29.88 in 10.0 mi North 8.1 mph 16.1 mph N/A   Clear
11:15 AM 87.8 °F 91.4 °F 68.0 °F 52% 29.88 in 10.0 mi North 10.4 mph 17.3 mph N/A   Clear
11:35 AM 87.8 °F 92.6 °F 69.8 °F 55% 29.87 in 10.0 mi NNW 9.2 mph - N/A   Clear
11:55 AM 87.8 °F 91.4 °F 68.0 °F 52% 29.87 in 10.0 mi North 8.1 mph - N/A   Clear
12:15 PM 91.4 °F 95.4 °F 68.0 °F 46% 29.87 in 10.0 mi North 9.2 mph 17.3 mph N/A   Clear
12:35 PM 91.4 °F 95.4 °F 68.0 °F 46% 29.86 in 10.0 mi North 8.1 mph 18.4 mph N/A   Clear
12:55 PM 91.4 °F 95.4 °F 68.0 °F 46% 29.86 in 10.0 mi North 9.2 mph - N/A   Clear
1:15 PM 93.2 °F 97.7 °F 68.0 °F 44% 29.86 in 10.0 mi North 9.2 mph 18.4 mph N/A   Clear
1:35 PM 95.0 °F 97.0 °F 64.4 °F 36% 29.85 in 10.0 mi North 6.9 mph - N/A   Clear
1:55 PM 93.2 °F 94.9 °F 64.4 °F 38% 29.85 in 10.0 mi North 8.1 mph 17.3 mph N/A   Clear
2:15 PM 95.0 °F 97.0 °F 64.4 °F 36% 29.84 in 10.0 mi NNW 9.2 mph - N/A   Clear
2:35 PM 95.0 °F 97.0 °F 64.4 °F 36% 29.83 in 10.0 mi North 5.8 mph - N/A   Scattered Clouds
2:55 PM 95.0 °F 97.0 °F 64.4 °F 36% 29.83 in 10.0 mi North 9.2 mph - N/A   Scattered Clouds
3:15 PM 96.8 °F 98.0 °F 62.6 °F 32% 29.82 in 10.0 mi North 9.2 mph 16.1 mph N/A   Clear
3:55 PM 96.8 °F 98.0 °F 62.6 °F 32% 29.81 in 10.0 mi NNW 10.4 mph - N/A   Scattered Clouds
4:15 PM 95.0 °F 95.2 °F 60.8 °F 32% 29.81 in 10.0 mi NNW 5.8 mph - N/A   Scattered Clouds
4:35 PM 93.2 °F 94.1 °F 62.6 °F 36% 29.81 in 10.0 mi NNW 8.1 mph - N/A   Scattered Clouds
4:55 PM 93.2 °F 94.1 °F 62.6 °F 36% 29.80 in 10.0 mi NW 6.9 mph - N/A   Clear
5:15 PM 95.0 °F 96.0 °F 62.6 °F 34% 29.80 in 10.0 mi North 5.8 mph - N/A   Scattered Clouds
5:35 PM 93.2 °F 94.1 °F 62.6 °F 36% 29.81 in 10.0 mi North 4.6 mph - N/A   Scattered Clouds
5:55 PM 95.0 °F 97.0 °F 64.4 °F 36% 29.80 in 10.0 mi North 3.5 mph - N/A   Scattered Clouds
6:15 PM 91.4 °F 93.2 °F 64.4 °F 41% 29.81 in 10.0 mi NW 5.8 mph - N/A   Scattered Clouds
6:35 PM 91.4 °F 93.2 °F 64.4 °F 41% 29.81 in 10.0 mi NW 4.6 mph - N/A   Clear
6:55 PM 91.4 °F 93.2 °F 64.4 °F 41% 29.81 in 10.0 mi Calm Calm - N/A   Clear
7:15 PM 91.4 °F 93.2 °F 64.4 °F 41% 29.81 in 10.0 mi Calm Calm - N/A   Clear
7:35 PM 89.6 °F 90.1 °F 62.6 °F 40% 29.81 in 10.0 mi NW 3.5 mph - N/A   Clear
7:55 PM 87.8 °F 88.5 °F 62.6 °F 43% 29.81 in 10.0 mi NW 5.8 mph - N/A   Scattered Clouds
8:15 PM 87.8 °F 88.5 °F 62.6 °F 43% 29.81 in 10.0 mi WNW 6.9 mph - N/A   Scattered Clouds
8:35 PM 86.0 °F 86.6 °F 62.6 °F 45% 29.82 in 10.0 mi NW 6.9 mph - N/A   Clear
8:55 PM 86.0 °F 86.6 °F 62.6 °F 45% 29.83 in 10.0 mi NW 6.9 mph - N/A   Clear
9:15 PM 84.2 °F 85.6 °F 64.4 °F 51% 29.83 in 10.0 mi NW 5.8 mph - N/A   Clear
9:35 PM 82.4 °F 83.9 °F 64.4 °F 54% 29.84 in 10.0 mi NW 5.8 mph - N/A   Clear
9:55 PM 82.4 °F 83.9 °F 64.4 °F 54% 29.85 in 10.0 mi NW 4.6 mph - N/A   Clear
10:15 PM 80.6 °F 82.3 °F 64.4 °F 58% 29.85 in 10.0 mi NW 4.6 mph - N/A   Clear
10:35 PM 80.6 °F 82.3 °F 64.4 °F 58% 29.85 in 10.0 mi NW 4.6 mph - N/A   Clear
10:55 PM 80.6 °F 82.3 °F 64.4 °F 58% 29.85 in 10.0 mi NW 4.6 mph - N/A   Clear
11:15 PM 80.6 °F 82.3 °F 64.4 °F 58% 29.85 in 10.0 mi NW 4.6 mph - N/A   Clear
11:35 PM 80.6 °F 82.3 °F 64.4 °F 58% 29.85 in 10.0 mi NW 4.6 mph - N/A   Clear
11:55 PM 78.8 °F - 64.4 °F 61% 29.85 in 10.0 mi NW 3.5 mph - N/A   Clear